Regional Weather Roundup
Issued by NWS

Home | Current Version | Previous Version | Graphics & Text | Print | Product List | Glossary On
Versions: 1 2 3 4 5 6 7 8 9 10 11 12 13 14 15 16 17 18 19 20 21 22 23 24 25 26 27 28 29 30 31 32 33 34 35 36 37 38 39 40 41 42 43 44 45 46 47 48 49 50
000
ASUS43 KLSX 261307
RWRMO

WEATHER SUMMARY FOR MISSOURI
NATIONAL WEATHER SERVICE SPRINGFIELD MO
700 AM CST SUN FEB 26 2017

NOTE: "FAIR" INDICATES FEW OR NO CLOUDS BELOW 12,000 FEET WITH NO
       SIGNIFICANT WEATHER AND/OR OBSTRUCTIONS TO VISIBILITY.
       CURRENT SKY AND/OR WEATHER CONDITIONS ARE NOT AVAILABLE FOR
       CHILLICOTHE AND FARMINGTON.

MOZ001>031-035>038-043-044-053-054-261400-
...NORTHERN AND WESTERN MISSOURI...

CITY           SKY/WX    TMP DP  RH WIND       PRES   REMARKS
KANSAS CTY INT CLOUDY    35  17  47 SW10      30.01R WCI  27
KANSAS C DTWN  CLOUDY    39  20  46 SW9       30.02R
LEE`S SUMMIT   CLOUDY    36  20  52 SW12      30.02R WCI  28
ST JOSEPH      PTCLDY    23  17  78 CALM      30.01R
CHILLICOTHE      N/A     32  17  54 S3        30.01R
KIRKSVILLE     CLOUDY    32  15  49 SW13      29.99S WCI  22

$$
MOZ066>068-077>081-088>096-101>105-261400-
...SOUTHWEST MISSOURI...

CITY           SKY/WX    TMP DP  RH WIND       PRES   REMARKS
SPRINGFIELD    CLOUDY    34  17  50 SE12      30.03S WCI  25
JOPLIN         CLOUDY    36  21  54 SE6       30.03R
BRANSON        MOCLDY    32  16  51 SE8       30.05F WCI  25

$$
MOZ032>034-039>042-045>050-055>058-069>072-261400-
...CENTRAL MISSOURI...

CITY           SKY/WX    TMP DP  RH WIND       PRES   REMARKS
COLUMBIA       CLOUDY    30  15  53 S9        30.05R WCI  22
JEFFERSON CITY CLOUDY    32  14  47 E3        30.08R
ROLLA          CLOUDY    31  13  47 S12G21    30.06R WCI  22
SEDALIA        CLOUDY    37  14  38 S12       30.04S WCI  29
WHITEMAN AFB   CLOUDY    35  18  48 SW10      30.01F WCI  28
WARRENSBURG    CLOUDY    36  19  51 S7        30.03S WCI  30
OSAGE BEACH    CLOUDY    32  17  54 SE7       30.07S WCI  26

$$
MOZ051-052-059>065-261400-
...EAST CENTRAL MISSOURI...

CITY           SKY/WX    TMP DP  RH WIND       PRES   REMARKS
ST LOUIS INTL  MOCLDY    33  13  43 S10       30.09F WCI  25
SPIRIT OF STL  PTCLDY    32  13  45 S9        30.09F WCI  24
ST CHARLES     PTCLDY    27  18  69 E5        30.10S WCI  22

$$
MOZ072>076-082>087-097>100-106>115-261400-
...SOUTH CENTRAL AND SOUTHEAST MISSOURI...

CITY           SKY/WX    TMP DP  RH WIND       PRES   REMARKS
CAPE GIRARDEAU CLEAR     30  19  63 SE10      30.16F WCI  21
FARMINGTON     PTCLDY    26  14  60 SW3       30.13R
POPLAR BLUFF   CLEAR     28  24  85 CALM      30.16R
WEST PLAINS    PTCLDY    29  12  49 SE5       30.11R WCI  24

$$


USA.gov is the U.S. government's official web portal to all federal, state and local government web resources and services.